User: anonymous   Login
Location: PACMO
(41.3967°N, 90.3760°W)
Time: 01:23:25
(UTC-05:00)
Language:

NOAA 19 - Orbit

View from above orbital plane
View from above orbital plane
View from above satellite
View from above satellite

Ground track
Ground track

The orbit data is extracted from the following two-line orbital elements,

1 33591U 09005A   15149.52913149  .00000117  00000-0  88691-4 0  9994
2 33591 098.9885 099.3641 0013200 219.6290 140.3918 14.11937683324858
Epoch (UTC): 29 May 2015 12:41:56
Eccentricity: 0.0013200
inclination: 98.9885°
perigee height: 843 km
apogee height: 862 km
right ascension of ascending node: 99.3641°
argument of perigee: 219.6290°
revolutions per day: 14.11937683
mean anomaly at epoch: 140.3918°
orbit number at epoch: 32485

The dashed part of the orbit path shows where the satellite is in the earth's shadow,  

DLR